Time,TemperatureF,DewpointF,PressureIn,WindDirection,WindDirectionDegrees,WindSpeedMPH,WindSpeedGustMPH,Humidity,HourlyPrecipIn,Conditions,Clouds,dailyrainin,SoftwareType,DateUTC
2013-03-22 00:03:00,74.0,69.0,-100.00,South,178,2.0,10.0,84,0.00,,,0.00,,2013-03-22 10:03:00,
2013-03-22 00:12:00,74.0,69.0,-100.00,South,178,2.0,10.0,84,0.00,,,0.00,,2013-03-22 10:12:00,
2013-03-22 00:22:00,74.0,69.0,-100.00,South,178,2.0,10.0,84,0.00,,,0.00,,2013-03-22 10:22:00,
2013-03-22 00:32:00,74.0,69.0,-100.00,South,178,2.0,10.0,84,0.00,,,0.00,,2013-03-22 10:32:00,
2013-03-22 00:41:00,74.0,69.0,-100.00,SW,220,4.0,6.0,85,0.00,,,0.00,,2013-03-22 10:41:00,
2013-03-22 01:02:00,74.0,69.0,-100.00,SW,220,4.0,6.0,85,0.00,,,0.00,,2013-03-22 11:02:00,
2013-03-22 01:12:00,74.0,69.0,-100.00,SW,220,4.0,6.0,85,0.00,,,0.00,,2013-03-22 11:12:00,
2013-03-22 01:22:00,74.0,69.0,-100.00,SW,220,4.0,6.0,85,0.00,,,0.00,,2013-03-22 11:22:00,
2013-03-22 01:32:00,74.0,69.0,-100.00,SW,220,4.0,6.0,85,0.00,,,0.00,,2013-03-22 11:32:00,
2013-03-22 01:41:00,74.0,69.0,-100.00,South,191,4.0,7.0,84,0.00,,,0.00,,2013-03-22 11:41:00,
2013-03-22 02:02:00,74.0,69.0,-100.00,South,191,4.0,7.0,84,0.00,,,0.00,,2013-03-22 12:02:00,
2013-03-22 02:12:00,74.0,69.0,-100.00,South,191,4.0,7.0,84,0.00,,,0.00,,2013-03-22 12:12:00,
2013-03-22 02:22:00,74.0,69.0,-100.00,South,191,4.0,7.0,84,0.00,,,0.00,,2013-03-22 12:22:00,
2013-03-22 02:32:00,74.0,69.0,-100.00,South,191,4.0,7.0,84,0.00,,,0.00,,2013-03-22 12:32:00,
2013-03-22 02:41:00,74.0,68.0,-100.00,SW,221,4.0,8.0,82,0.00,,,0.00,,2013-03-22 12:41:00,
2013-03-22 03:02:00,74.0,68.0,-100.00,SW,221,4.0,8.0,82,0.00,,,0.00,,2013-03-22 13:02:00,
2013-03-22 03:12:00,74.0,68.0,-100.00,SW,221,4.0,8.0,82,0.00,,,0.00,,2013-03-22 13:12:00,
2013-03-22 03:22:00,74.0,68.0,-100.00,SW,221,4.0,8.0,82,0.00,,,0.00,,2013-03-22 13:22:00,
2013-03-22 03:32:00,74.0,68.0,-100.00,SW,221,4.0,8.0,82,0.00,,,0.00,,2013-03-22 13:32:00,
2013-03-22 03:41:00,74.0,69.0,-100.00,SW,224,5.0,10.0,84,0.00,,,0.00,,2013-03-22 13:41:00,
2013-03-22 04:02:00,74.0,69.0,-100.00,SW,224,5.0,10.0,84,0.00,,,0.00,,2013-03-22 14:02:00,
2013-03-22 04:12:00,74.0,69.0,-100.00,SW,224,5.0,10.0,84,0.00,,,0.00,,2013-03-22 14:12:00,
2013-03-22 04:22:00,74.0,69.0,-100.00,SW,224,5.0,10.0,84,0.00,,,0.00,,2013-03-22 14:22:00,
2013-03-22 04:32:00,74.0,69.0,-100.00,SW,224,5.0,10.0,84,0.00,,,0.00,,2013-03-22 14:32:00,
2013-03-22 04:41:00,74.0,66.0,-100.00,SW,217,5.0,10.0,77,0.00,,,0.00,,2013-03-22 14:41:00,
2013-03-22 05:02:00,74.0,66.0,-100.00,SW,217,5.0,10.0,77,0.00,,,0.00,,2013-03-22 15:02:00,
2013-03-22 05:12:00,74.0,66.0,-100.00,SW,217,5.0,10.0,77,0.00,,,0.00,,2013-03-22 15:12:00,
2013-03-22 05:22:00,74.0,66.0,-100.00,SW,217,5.0,10.0,77,0.00,,,0.00,,2013-03-22 15:22:00,
2013-03-22 05:32:00,74.0,66.0,-100.00,SW,217,5.0,10.0,77,0.00,,,0.00,,2013-03-22 15:32:00,
2013-03-22 05:41:00,74.0,66.0,-100.00,SW,215,4.0,8.0,76,0.00,,,0.00,,2013-03-22 15:41:00,
2013-03-22 06:02:00,74.0,66.0,-100.00,SW,215,4.0,8.0,76,0.00,,,0.00,,2013-03-22 16:02:00,
2013-03-22 06:13:00,74.0,66.0,-100.00,SW,215,4.0,8.0,76,0.00,,,0.00,,2013-03-22 16:13:00,
2013-03-22 06:22:00,74.0,66.0,-100.00,SW,215,4.0,8.0,76,0.00,,,0.00,,2013-03-22 16:22:00,
2013-03-22 06:32:00,74.0,66.0,-100.00,SW,215,4.0,8.0,76,0.00,,,0.00,,2013-03-22 16:32:00,
2013-03-22 06:41:00,73.0,67.0,-100.00,South,182,3.0,9.0,81,0.00,,,0.00,,2013-03-22 16:41:00,
2013-03-22 07:03:00,73.0,67.0,-100.00,South,182,3.0,9.0,81,0.00,,,0.00,,2013-03-22 17:03:00,
2013-03-22 07:12:00,73.0,67.0,-100.00,South,182,3.0,9.0,81,0.00,,,0.00,,2013-03-22 17:12:00,
2013-03-22 07:22:00,73.0,67.0,-100.00,South,182,3.0,9.0,81,0.00,,,0.00,,2013-03-22 17:22:00,
2013-03-22 07:32:00,73.0,67.0,-100.00,South,182,3.0,9.0,81,0.00,,,0.00,,2013-03-22 17:32:00,
2013-03-22 07:41:00,74.0,70.0,-100.00,SW,221,3.0,5.0,86,0.00,,,0.00,,2013-03-22 17:41:00,
2013-03-22 08:02:00,74.0,70.0,-100.00,SW,221,3.0,5.0,86,0.00,,,0.00,,2013-03-22 18:02:00,
2013-03-22 08:12:00,74.0,70.0,-100.00,SW,221,3.0,5.0,86,0.00,,,0.00,,2013-03-22 18:12:00,
2013-03-22 08:22:00,74.0,70.0,-100.00,SW,221,3.0,5.0,86,0.00,,,0.00,,2013-03-22 18:22:00,
2013-03-22 08:32:00,74.0,70.0,-100.00,SW,221,3.0,5.0,86,0.00,,,0.00,,2013-03-22 18:32:00,
2013-03-22 08:41:00,77.0,68.0,-100.00,SW,229,5.0,8.0,73,0.00,,,-99.99,,2013-03-22 18:41:00,
2013-03-22 09:02:00,77.0,68.0,-100.00,SW,229,5.0,8.0,73,0.00,,,-99.99,,2013-03-22 19:02:00,
2013-03-22 09:12:00,77.0,68.0,-100.00,SW,229,5.0,8.0,73,0.00,,,-99.99,,2013-03-22 19:12:00,
2013-03-22 09:22:00,77.0,68.0,-100.00,SW,229,5.0,8.0,73,0.00,,,-99.99,,2013-03-22 19:22:00,
2013-03-22 09:32:00,77.0,68.0,-100.00,SW,229,5.0,8.0,73,0.00,,,-99.99,,2013-03-22 19:32:00,
2013-03-22 09:41:00,78.0,69.0,-100.00,SW,225,8.0,15.0,73,0.00,,,0.00,,2013-03-22 19:41:00,
2013-03-22 10:02:00,78.0,69.0,-100.00,SW,225,8.0,15.0,73,0.00,,,0.00,,2013-03-22 20:02:00,
2013-03-22 10:12:00,78.0,69.0,-100.00,SW,225,8.0,15.0,73,0.00,,,0.00,,2013-03-22 20:12:00,
2013-03-22 10:22:00,78.0,69.0,-100.00,SW,225,8.0,15.0,73,0.00,,,0.00,,2013-03-22 20:22:00,
2013-03-22 10:32:00,78.0,69.0,-100.00,SW,225,8.0,15.0,73,0.00,,,0.00,,2013-03-22 20:32:00,
2013-03-22 10:41:00,80.0,66.0,-100.00,South,187,6.0,11.0,63,0.00,,,0.00,,2013-03-22 20:41:00,
2013-03-22 11:12:00,80.0,66.0,-100.00,South,187,6.0,11.0,63,0.00,,,0.00,,2013-03-22 21:12:00,
2013-03-22 11:22:00,80.0,66.0,-100.00,South,187,6.0,11.0,63,0.00,,,0.00,,2013-03-22 21:22:00,
2013-03-22 11:32:00,80.0,66.0,-100.00,South,187,6.0,11.0,63,0.00,,,0.00,,2013-03-22 21:32:00,
2013-03-22 11:41:00,80.0,65.0,-100.00,SW,225,7.0,12.0,60,0.00,,,0.00,,2013-03-22 21:41:00,
2013-03-22 12:02:00,80.0,65.0,-100.00,SW,225,7.0,12.0,60,0.00,,,0.00,,2013-03-22 22:02:00,
2013-03-22 12:12:00,80.0,65.0,-100.00,SW,225,7.0,12.0,60,0.00,,,0.00,,2013-03-22 22:12:00,
2013-03-22 12:22:00,80.0,65.0,-100.00,SW,225,7.0,12.0,60,0.00,,,0.00,,2013-03-22 22:22:00,
2013-03-22 12:32:00,80.0,65.0,-100.00,SW,225,7.0,12.0,60,0.00,,,0.00,,2013-03-22 22:32:00,
2013-03-22 12:41:00,78.0,67.0,-100.00,SW,228,10.0,16.0,70,0.00,,,0.00,,2013-03-22 22:41:00,
2013-03-22 13:02:00,78.0,67.0,-100.00,SW,228,10.0,16.0,70,0.00,,,0.00,,2013-03-22 23:02:00,
2013-03-22 13:12:00,78.0,67.0,-100.00,SW,228,10.0,16.0,70,0.00,,,0.00,,2013-03-22 23:12:00,
2013-03-22 13:22:00,78.0,67.0,-100.00,SW,228,10.0,16.0,70,0.00,,,0.00,,2013-03-22 23:22:00,
2013-03-22 13:32:00,78.0,67.0,-100.00,SW,228,10.0,16.0,70,0.00,,,0.00,,2013-03-22 23:32:00,
2013-03-22 13:41:00,79.0,66.0,-100.00,SW,227,9.0,14.0,65,0.00,,,0.00,,2013-03-22 23:41:00,
2013-03-22 14:02:00,79.0,66.0,-100.00,SW,227,9.0,14.0,65,0.00,,,0.00,,2013-03-23 00:02:00,
2013-03-22 14:12:00,79.0,66.0,-100.00,SW,227,9.0,14.0,65,0.00,,,0.00,,2013-03-23 00:12:00,
2013-03-22 14:22:00,79.0,66.0,-100.00,SW,227,9.0,14.0,65,0.00,,,0.00,,2013-03-23 00:22:00,
2013-03-22 14:32:00,79.0,66.0,-100.00,SW,227,9.0,14.0,65,0.00,,,0.00,,2013-03-23 00:32:00,
2013-03-22 14:41:00,78.0,65.0,-100.00,SW,229,8.0,14.0,65,0.00,,,0.00,,2013-03-23 00:41:00,
2013-03-22 15:03:00,78.0,65.0,-100.00,SW,229,8.0,14.0,65,0.00,,,0.00,,2013-03-23 01:03:00,
2013-03-22 15:12:00,78.0,65.0,-100.00,SW,229,8.0,14.0,65,0.00,,,0.00,,2013-03-23 01:12:00,
2013-03-22 15:22:00,78.0,65.0,-100.00,SW,229,8.0,14.0,65,0.00,,,0.00,,2013-03-23 01:22:00,
2013-03-22 15:32:00,78.0,65.0,-100.00,SW,229,8.0,14.0,65,0.00,,,0.00,,2013-03-23 01:32:00,
2013-03-22 15:41:00,78.0,65.0,-100.00,South,191,7.0,15.0,65,0.00,,,0.00,,2013-03-23 01:41:00,
2013-03-22 16:02:00,78.0,65.0,-100.00,South,191,7.0,15.0,65,0.00,,,0.00,,2013-03-23 02:02:00,
2013-03-22 16:12:00,78.0,65.0,-100.00,South,191,7.0,15.0,65,0.00,,,0.00,,2013-03-23 02:12:00,
2013-03-22 16:22:00,78.0,65.0,-100.00,South,191,7.0,15.0,65,0.00,,,0.00,,2013-03-23 02:22:00,
2013-03-22 16:31:00,78.0,65.0,-100.00,South,191,7.0,15.0,65,0.00,,,0.00,,2013-03-23 02:31:00,
2013-03-22 16:41:00,74.0,65.0,-100.00,SW,218,7.0,13.0,73,0.00,,,0.00,,2013-03-23 02:41:00,
2013-03-22 17:02:00,74.0,65.0,-100.00,SW,218,7.0,13.0,73,0.00,,,0.00,,2013-03-23 03:02:00,
2013-03-22 17:12:00,74.0,65.0,-100.00,SW,218,7.0,13.0,73,0.00,,,0.00,,2013-03-23 03:12:00,
2013-03-22 17:22:00,74.0,65.0,-100.00,SW,218,7.0,13.0,73,0.00,,,0.00,,2013-03-23 03:22:00,
2013-03-22 17:32:00,74.0,65.0,-100.00,SW,218,7.0,13.0,73,0.00,,,0.00,,2013-03-23 03:32:00,
2013-03-22 17:41:00,74.0,66.0,-100.00,SSE,161,3.0,9.0,75,0.00,,,0.00,,2013-03-23 03:41:00,
2013-03-22 18:02:00,74.0,66.0,-100.00,SSE,161,3.0,9.0,75,0.00,,,0.00,,2013-03-23 04:02:00,
2013-03-22 18:12:00,74.0,66.0,-100.00,SSE,161,3.0,9.0,75,0.00,,,0.00,,2013-03-23 04:12:00,
2013-03-22 18:23:00,74.0,66.0,-100.00,SSE,161,3.0,9.0,75,0.00,,,0.00,,2013-03-23 04:23:00,
2013-03-22 18:32:00,74.0,66.0,-100.00,SSE,161,3.0,9.0,75,0.00,,,0.00,,2013-03-23 04:32:00,
2013-03-22 18:41:00,73.0,63.0,-100.00,SSE,150,3.0,5.0,71,0.00,,,0.00,,2013-03-23 04:41:00,
2013-03-22 19:02:00,73.0,63.0,-100.00,SSE,150,3.0,5.0,71,0.00,,,0.00,,2013-03-23 05:02:00,
2013-03-22 19:12:00,73.0,63.0,-100.00,SSE,150,3.0,5.0,71,0.00,,,0.00,,2013-03-23 05:12:00,
2013-03-22 19:22:00,73.0,63.0,-100.00,SSE,150,3.0,5.0,71,0.00,,,0.00,,2013-03-23 05:22:00,
2013-03-22 19:32:00,73.0,63.0,-100.00,SSE,150,3.0,5.0,71,0.00,,,0.00,,2013-03-23 05:32:00,
2013-03-22 19:41:00,73.0,66.0,-100.00,SSW,201,2.0,5.0,80,0.00,,,0.00,,2013-03-23 05:41:00,
2013-03-22 20:02:00,73.0,66.0,-100.00,SSW,201,2.0,5.0,80,0.00,,,0.00,,2013-03-23 06:02:00,
2013-03-22 20:12:00,73.0,66.0,-100.00,SSW,201,2.0,5.0,80,0.00,,,0.00,,2013-03-23 06:12:00,
2013-03-22 20:22:00,73.0,66.0,-100.00,SSW,201,2.0,5.0,80,0.00,,,0.00,,2013-03-23 06:22:00,
2013-03-22 20:32:00,73.0,66.0,-100.00,SSW,201,2.0,5.0,80,0.00,,,0.00,,2013-03-23 06:32:00,
2013-03-22 20:41:00,72.0,66.0,-100.00,SSE,161,3.0,6.0,82,0.00,,,0.00,,2013-03-23 06:41:00,
2013-03-22 21:02:00,72.0,66.0,-100.00,SSE,161,3.0,6.0,82,0.00,,,0.00,,2013-03-23 07:02:00,
2013-03-22 21:12:00,72.0,66.0,-100.00,SSE,161,3.0,6.0,82,0.00,,,0.00,,2013-03-23 07:12:00,
2013-03-22 21:22:00,72.0,66.0,-100.00,SSE,161,3.0,6.0,82,0.00,,,0.00,,2013-03-23 07:22:00,
2013-03-22 21:32:00,72.0,66.0,-100.00,SSE,161,3.0,6.0,82,0.00,,,0.00,,2013-03-23 07:32:00,
2013-03-22 21:41:00,72.0,67.0,-100.00,East,95,6.0,10.0,85,0.00,,,0.00,,2013-03-23 07:41:00,
2013-03-22 22:02:00,72.0,67.0,-100.00,East,95,6.0,10.0,85,0.00,,,0.00,,2013-03-23 08:02:00,
2013-03-22 22:12:00,72.0,67.0,-100.00,East,95,6.0,10.0,85,0.00,,,0.00,,2013-03-23 08:12:00,
2013-03-22 22:22:00,72.0,67.0,-100.00,East,95,6.0,10.0,85,0.00,,,0.00,,2013-03-23 08:22:00,
2013-03-22 22:32:00,72.0,67.0,-100.00,East,95,6.0,10.0,85,0.00,,,0.00,,2013-03-23 08:32:00,
2013-03-22 22:41:00,71.0,66.0,-100.00,North,7,2.0,7.0,85,0.00,,,0.00,,2013-03-23 08:41:00,
2013-03-22 23:02:00,71.0,66.0,-100.00,North,7,2.0,7.0,85,0.00,,,0.00,,2013-03-23 09:02:00,
2013-03-22 23:12:00,71.0,66.0,-100.00,North,7,2.0,7.0,85,0.00,,,0.00,,2013-03-23 09:12:00,
2013-03-22 23:22:00,71.0,66.0,-100.00,North,7,2.0,7.0,85,0.00,,,0.00,,2013-03-23 09:22:00,
2013-03-22 23:32:00,71.0,66.0,-100.00,North,7,2.0,7.0,85,0.00,,,0.00,,2013-03-23 09:32:00,
2013-03-22 23:41:00,71.0,66.0,-100.00,NW,317,8.0,13.0,84,0.00,,,0.00,,2013-03-23 09:41:00,